User: anonymous   Login
Location: Iola
(37.9240°N, 95.4000°W)
Time: 09:21:28
(UTC-05:00)
Language:

Meteor 2-10 Rocket - Orbit

View from above orbital plane
View from above orbital plane
View from above satellite
View from above satellite

Ground track
Ground track

The orbit data is extracted from the following two-line orbital elements,

1 14453U 83109B   15085.88078617  .00000231  00000-0  89331-4 0  9996
2 14453 081.1685 204.4308 0104064 256.2223 102.7357 14.24579042631728
Epoch (UTC): 26 March 2015 21:08:19
Eccentricity: 0.0104064
inclination: 81.1685°
perigee height: 735 km
apogee height: 885 km
right ascension of ascending node: 204.4308°
argument of perigee: 256.2223°
revolutions per day: 14.24579042
mean anomaly at epoch: 102.7357°
orbit number at epoch: 63172

The dashed part of the orbit path shows where the satellite is in the earth's shadow,  

DLR